Location: Casa Blanca
(33.9331°N, 117.4025°W)
Time: 05:57:26
(UTC+00:00)

Daily predictions for brighter satellites

Satellite Brightness Start Highest point End
(mag) Time Altitude Azimuth Time Altitude Azimuth Time Altitude Azimuth
Okean 2 Rocket 3.7 03:26:27 10° N 03:30:40 39° E 03:34:52 10° SSE
Cosmos 614 Rocket 4.1 03:29:37 10° NNW 03:34:50 85° WSW 03:40:03 10° SSE
Cosmos 1400 Rocket 3.4 03:31:27 10° N 03:35:03 36° ENE 03:38:37 10° SSE
Cosmos 2251 Rocket 4.0 03:31:00 10° NNW 03:36:14 65° WSW 03:41:28 10° S
Resurs 01 Rocket 3.3 03:34:33 10° ESE 03:37:34 19° ENE 03:40:37 10° NNE
Nadezhda 3 Rocket 4.3 03:32:40 10° S 03:38:47 75° W 03:44:58 10° N
Cosmos 2285 Rocket 4.4 03:33:10 10° S 03:39:11 44° E 03:45:13 10° NNE
Cosmos 2151 Rocket 4.2 03:36:12 10° NNE 03:40:17 37° E 03:44:21 10° SSE
Meteor 1-15 Rocket 4.4 03:35:04 10° N 03:41:01 78° E 03:46:54 10° SSE
PEGASUS R/B 4.4 03:39:44 10° SSE 03:42:29 68° WSW 03:46:58 10° NNW
Cosmos 2056 Rocket 3.5 03:38:19 10° SSW 03:43:28 85° ESE 03:48:44 10° NNE
Cosmos 2263 Rocket 3.2 03:38:42 10° N 03:43:44 31° ENE 03:48:33 11° ESE
Cosmos 2297 Rocket 4.2 03:42:30 10° NW 03:47:04 26° WSW 03:51:39 10° SSW
Lacrosse 5 3.8 03:44:37 10° N 03:48:05 18° NE 03:51:32 10° E
Cosmos 2227 Rocket 3.8 03:45:51 10° NW 03:50:50 33° WSW 03:55:48 10° SSW
Cosmos 1842 3.2 03:47:52 10° S 03:51:46 67° E 03:55:40 10° NNE
Cosmos 407 Rocket 3.5 03:49:03 10° NNW 03:54:20 70° ENE 03:59:32 10° SSE
ERS-2 2.7 03:50:47 10° N 03:54:23 61° WNW 03:57:58 10° SSW
Cosmos 1300 Rocket 3.7 03:51:53 10° N 03:56:11 74° W 04:00:29 10° S
Cosmos 1674 Rocket 3.5 03:51:49 10° S 03:56:12 69° E 04:00:34 10° NNE
Helios 1A Rocket 3.7 03:54:11 10° S 03:58:08 50° W 04:02:05 10° NNW
Genesis I 3.4 03:57:27 10° SSW 04:01:15 74° WNW 04:05:08 10° NNE
Cosmos 1339 Rocket 4.5 03:55:15 10° S 04:01:26 70° E 04:07:32 10° N
Cosmos 1420 Rocket 3.9 03:56:36 10° S 04:01:45 79° ESE 04:06:57 10° NNE
Cosmos 1766 3.3 04:00:10 10° N 04:04:01 77° W 04:07:53 10° S
USA 186 3.7 04:02:38 10° SSW 04:04:50 23° W 04:07:10 10° NW
Cosmos 1190 Rocket 4.1 04:01:30 10° N 04:06:47 67° ENE 04:11:12 15° SSE
MOS 1 4.3 04:02:25 10° SSE 04:08:06 82° ENE 04:13:49 10° N
SJ-6B 3.9 04:07:18 10° S 04:11:15 46° W 04:15:11 10° NNW
Cosmos 1470 3.3 04:11:22 10° N 04:15:09 41° E 04:17:14 22° SE
KM-V1 4.2 04:13:17 10° WSW 04:15:54 46° SSE 04:18:59 17° E
Cosmos 1674 4.3 04:16:07 17° E 04:16:26 17° E 04:18:56 10° NE
SPOT 3 Rocket 4.0 04:14:38 18° SE 04:18:08 46° ENE 04:23:05 10° N
NOSS 3-2 (C) 4.2 04:17:39 10° SW 04:22:55 50° NW 04:28:51 10° NNE
Aureole 2 Rocket 4.2 04:21:55 10° WNW 04:23:31 16° W 04:25:05 10° SW
OBJECT-B 3.2 04:21:07 10° SSW 04:23:35 21° W 04:26:05 10° NW
ASTRO E2 3.7 04:20:29 10° SW 04:23:45 25° SSE 04:23:57 24° SSE
CZ-2C R/B 3.9 04:22:07 10° NNE 04:26:49 55° E 04:30:28 16° S
Cosmos 1315 Rocket 3.2 04:23:23 10° N 04:27:24 48° E 04:29:13 28° SE
ATLAS 3B R/B 3.5 04:26:19 21° SE 04:28:47 26° ESE 04:34:04 10° NE
SL-16 R/B 2.4 04:24:54 10° SSW 04:30:32 75° WNW 04:36:14 10° NNE
Cosmos 2360 Rocket 2.5 04:26:52 12° S 04:31:45 45° ESE 04:37:06 10° NE
Cosmos 2322 Rocket 2.2 04:27:28 10° SSW 04:33:09 87° ESE 04:38:53 10° NNE
Ariane Rocket 3.6 04:30:58 11° S 04:35:42 56° W 04:40:43 10° NNW
Resurs 1-3 4.4 04:32:41 12° S 04:36:35 47° W 04:40:50 10° NNW
Cosmos 1726 1.9 04:33:37 10° N 04:37:15 80° E 04:38:43 34° SSE
Delta 128 4.1 04:34:00 10° WSW 04:38:11 40° S 04:39:33 32° SE
Okean 1 Rocket 3.0 04:34:40 10° N 04:39:04 86° E 04:41:27 27° S
Cosmos 676 Rocket 4.0 04:34:12 10° NNW 04:39:33 80° ENE 04:42:30 27° SSE
Cosmos 1954 Rocket 4.0 04:34:57 10° NNW 04:40:18 83° ENE 04:43:14 27° SSE
Cosmos 1455 Rocket 4.3 04:38:08 10° NNE 04:41:51 25° ENE 04:42:32 24° E
Cosmos 2227 4.1 04:38:25 10° NNW 04:44:03 90° WNW 04:47:10 28° SSE
Cosmos 1758 3.3 04:42:03 10° N 04:46:00 63° E 04:47:05 43° SE
COSMOS 2428 4.4 04:48:51 16° E 04:48:51 16° E 04:51:28 10° ENE
Lacrosse 5 rocket 0.9 04:45:11 10° SSW 04:48:57 73° SE 04:52:34 10° NE
BREEZE M DEB (TANK) 4.4 04:49:04 31° SE 04:49:58 33° ESE 05:00:03 10° NE
Cosmos 1707 3.6 04:48:45 13° SSW 04:51:58 48° W 04:55:45 10° N
Cosmos 2237 4.2 04:47:15 10° SSW 04:52:57 90° WNW 04:58:41 10° NNE
USA 81 3.9 04:48:40 10° N 04:53:58 78° E 04:56:25 32° SSE
Cosmos 1110 Rocket 3.9 04:55:36 31° S 04:57:58 62° ESE 05:03:06 10° NNE
USA 215 3.4 04:53:16 10° NE 04:59:28 45° SE 05:05:39 10° SSW
ATLAS 2A CENTAUR R/B 3.5 04:48:58 10° SW 05:03:04 32° S 05:04:20 30° SSE
SPOT 5 3.5 05:09:16 39° ESE 05:10:20 44° ENE 05:15:06 10° N
Cosmos 2173 Rocket 4.2 05:04:19 10° N 05:10:35 55° E 05:12:37 40° SE
Cosmos 1953 2.5 05:09:40 10° N 05:13:34 54° ENE 05:13:34 54° ENE
Resurs 01 Rocket 3.1 05:11:28 19° SSW 05:13:48 32° W 05:17:45 10° NW
Cosmos 1025 Rocket 3.0 05:14:15 60° ESE 05:14:25 60° E 05:18:43 10° NNE
Cosmos 1844 Rocket 3.5 05:09:25 10° N 05:14:38 36° ENE 05:15:57 32° E
CARTOSAT-1 3.4 05:16:30 67° SE 05:16:57 75° ENE 05:21:16 10° N
Cosmos 1626 2.6 05:19:33 51° NE 05:19:33 51° NE 05:22:30 10° NNE
USA 245 3.9 05:17:47 49° SSW 05:18:55 71° WSW 05:24:12 10° NNW
Terra 2.5 05:20:33 37° E 05:20:49 37° ENE 05:25:11 10° N
BREEZE-M DEB (TANK) 4.0 05:23:07 10° W 05:25:05 22° NNW 05:27:49 10° NNE
Cosmos 1975 Rocket 3.9 05:23:52 29° SW 05:25:38 46° W 05:29:51 10° N
Cosmos 2263 Rocket 3.6 05:22:38 10° NW 05:27:31 30° WSW 05:30:16 20° SW
Cosmos 2333 4.1 05:27:12 44° S 05:29:08 79° ESE 05:34:53 10° NNE
SPOT 1/Viking Rocket 4.1 05:28:08 35° SSW 05:29:55 49° W 05:34:54 10° NNW
Lacrosse 5 1.7 05:26:28 10° NW 05:31:32 77° SW 05:32:05 68° S
Cosmos 1461 3.9 05:29:12 10° N 05:32:40 34° NE 05:32:40 34° NE
Geosat 3.8 05:35:56 69° SE 05:36:31 82° ENE 05:41:33 10° NNW
Cosmos 1850 Rocket 3.9 05:31:24 10° NNW 05:36:42 82° WSW 05:37:26 66° S
Cosmos 1802 Rocket 3.9 05:32:29 10° N 05:38:47 74° E 05:40:09 56° SSE
Spot 2 Rocket 3.8 05:38:48 49° SW 05:39:47 58° W 05:44:47 10° NNW
Cosmos 2333 Rocket 2.1 05:38:37 58° S 05:39:47 80° ESE 05:45:33 10° NNE
ERS-1 Rocket 2.8 05:44:36 73° SSW 05:45:01 80° WSW 05:50:05 10° NNW
ATLAS CENTAUR R/B 3.4 05:43:41 10° N 05:47:01 20° NE 05:47:04 20° NE
ARIANE 5 R/B 3.4 05:51:18 44° WSW 05:51:26 44° W 05:55:41 10° NNW
Cosmos 2219 Rocket 2.1 05:52:52 71° SSW 05:53:33 88° ESE 05:59:15 10° NNE
Cosmos 1459 Rocket 4.2 05:49:48 10° NNW 05:55:45 62° W 05:57:11 49° SW
Cosmos 1844 3.6 05:54:00 10° NNW 05:59:35 74° ENE 05:59:43 73° E
Meteor 1-24 Rocket 3.7 06:01:43 64° ENE 06:01:43 64° ENE 06:06:37 10° NNE
Cosmos 1302 Rocket 4.1 06:03:20 67° WSW 06:03:45 71° WNW 06:09:00 10° NNE
Cosmos 1300 4.3 06:03:08 10° N 06:05:14 31° N 06:05:14 31° N
Cosmos 2237 Rocket 3.7 06:11:17 23° ENE 06:11:17 23° ENE 06:13:59 10° NE
Aureole 1 Rocket 4.3 06:05:09 10° NNW 06:11:30 69° WSW 06:12:59 56° SSW
Cosmos 2061 Rocket 4.0 06:07:17 10° N 06:13:42 75° W 06:14:32 65° SSW
Cosmos 2360 Rocket 4.4 06:11:39 10° WSW 06:15:55 22° WNW 06:20:11 10° N
Cosmos 1864 Rocket 4.4 06:12:19 10° N 06:18:28 71° W 06:18:59 67° SW
ATLAS 3B R/B 3.4 06:13:22 13° SW 06:19:02 48° NW 06:25:29 10° NNE
Lacrosse 5 rocket 4.4 06:27:15 10° NW 06:28:22 11° NW 06:29:28 10° NNW
COSMOS 2428 3.2 06:30:49 49° W 06:31:37 54° WNW 06:37:15 10° N
Cosmos 1447 Rocket 4.4 06:33:30 85° W 06:33:32 85° W 06:39:46 10° N
Cosmos 2233 Rocket 3.9 06:29:54 10° N 06:35:58 83° WNW 06:35:58 83° WNW
NOSS 0 Rocket 3.9 06:41:11 75° NE 06:41:11 75° NE 06:46:53 10° NNE
USA 215 4.2 06:36:15 10° NNE 06:42:23 45° NW 06:48:31 10° WSW
Cosmos 2278 Rocket 3.3 06:42:44 10° N 06:47:35 35° NE 06:47:35 35° NE
Cosmos 968 Rocket 4.2 06:49:44 10° NNW 06:53:30 50° NNW 06:53:30 50° NNW
ATLAS CENTAUR R/B 3.4 06:56:56 50° NE 06:56:56 50° NE 07:04:08 10° NE
Cosmos 1844 Rocket 4.3 06:53:42 10° NW 06:57:36 25° W 06:57:36 25° W
Terra 4.0 06:59:26 17° W 06:59:26 17° W 07:01:51 10° NW
GEOS 3 Rocket 4.1 07:01:29 58° NNE 07:01:29 58° NNE 07:06:02 10° NNW
Centaur D AC-28 3.9 07:05:38 55° S 07:07:13 60° SSE 08:12:55 10° E
Centaur D AC-28 3.9 07:05:38 55° S 07:07:13 60° SSE 08:12:56 10° E
USA 267 4.4 07:09:00 25° E 07:11:52 37° NE 07:17:45 10° NNW
Cosmos 1980 4.3 07:19:47 53° NW 07:19:47 53° NW 07:24:42 10° NNE
Cosmos 1464 Rocket 4.1 07:14:07 10° N 07:19:50 70° NNE 07:19:50 70° NNE
ATLAS CENTAUR R/B 3.9 07:21:48 10° NW 07:23:12 19° NW 07:23:12 19° NW
Cosmos 1943 Rocket 4.5 07:27:25 10° NNE 07:30:13 14° NE 07:31:43 13° ENE
SL-16 R/B 2.9 07:49:37 48° NE 07:49:37 48° NE 07:53:40 10° NNE
Cosmos 2237 Rocket 3.6 07:53:04 30° WNW 07:53:04 30° WNW 07:58:00 10° N
Cosmos 2034 Rocket 4.2 07:47:53 10° N 07:53:06 64° NNW 07:53:06 64° NNW
USA 229 DEB 4.4 07:56:00 39° ENE 07:56:00 39° ENE 08:00:38 10° NE
USA 229 4.4 07:56:07 39° ENE 07:56:07 39° ENE 08:00:44 10° NE
Thor Agena Rocket 4.4 07:55:37 10° N 07:59:22 46° N 07:59:22 46° N
SJ 16-02 3.5 07:59:33 10° N 08:01:47 22° NE 08:01:47 22° NE
NOSS 3-1 (C) 3.9 08:06:15 49° NNE 08:06:15 49° NNE 08:10:30 10° NNE
Tsikada Rocket 4.4 08:12:51 56° NW 08:12:51 56° NW 08:18:12 10° N
NOSS 3-1 (A) 4.2 08:15:57 39° ENE 08:15:57 39° ENE 08:19:45 10° NE
Cosmos 2297 4.2 08:24:40 10° NNW 08:29:30 55° NNE 08:29:30 55° NNE
Cosmos 2278 Rocket 4.0 08:27:07 10° NW 08:29:24 20° WNW 08:29:24 20° WNW
ATLAS 5 CENTAUR R/B 4.0 08:44:46 44° SSE 08:44:46 44° SSE 09:18:00 10° ESE
USA 267 3.7 08:56:19 45° W 08:56:19 45° W 09:01:03 10° NW
Cosmos 841 Rocket 4.4 09:00:02 40° ENE 09:00:02 40° ENE 09:04:00 10° NNE
Cosmos 1825 4.5 09:02:29 23° N 09:02:29 23° N 09:04:02 10° N
Cosmos 540 Rocket 4.2 09:02:22 47° ENE 09:02:22 47° ENE 09:06:21 10° NNE
Cosmos 1943 3.3 09:05:01 68° NE 09:05:01 68° NE 09:10:00 10° NNE
Cosmos 1898 Rocket 4.3 09:02:11 10° N 09:07:09 43° ENE 09:07:30 42° E
Cosmos 1603 3.7 09:10:36 76° NNE 09:10:36 76° NNE 09:15:48 10° NNE
Cosmos 1943 Rocket 2.6 09:09:00 10° NNW 09:13:12 51° NW 09:13:12 51° NW
Cosmos 2279 Rocket 4.1 09:11:08 10° NNW 09:16:53 60° WNW 09:16:53 60° WNW
NPP 3.9 09:13:49 10° NNE 09:19:00 59° E 09:19:00 59° E
Resurs 1-4 Rocket 2.1 09:18:28 10° NNE 09:23:30 79° NE 09:23:30 79° NE
X-37B 3.8 09:25:42 13° N 09:25:42 13° N 09:26:58 10° NNE
Cosmos 1570 Rocket 4.5 09:25:43 52° E 09:25:43 52° E 09:30:35 10° NNE
USA 306 4.2 09:29:59 37° ENE 09:29:59 37° ENE 09:32:40 10° NE
MOZ.5/SAFIR/RUBIN 5/SL-8 4.5 09:30:36 46° NW 09:30:36 46° NW 09:34:04 10° NNW
SL-16 R/B 4.4 09:31:28 13° WNW 09:32:42 13° NW 09:35:26 10° NNW
CZ-2D R/B 2.0 09:28:13 10° N 09:33:11 77° NW 09:33:11 77° NW
Cosmos 2221 3.3 09:29:19 10° N 09:32:33 49° NNE 09:32:33 49° NNE
Meteor 2-2 Rocket 4.2 09:28:59 10° N 09:35:03 86° W 09:35:29 78° S
Cosmos 2208 Rocket 4.4 09:37:00 54° ESE 09:37:17 55° ESE 09:42:36 10° NNE
AQUA 3.9 09:34:22 10° NNE 09:38:49 70° ENE 09:38:49 70° ENE
ADEOS II 2.5 09:35:43 10° NNE 09:40:50 52° E 09:41:23 50° ESE
Cosmos 2098 Rocket 3.7 09:41:14 66° W 09:41:19 66° W 09:46:30 10° N
SJ 16-02 3.9 09:38:32 10° NW 09:38:44 11° NW 09:38:44 11° NW
ARGOS Delta rocket 4.2 09:36:47 10° N 09:42:11 62° WNW 09:42:11 62° WNW
USA 290 4.5 09:47:46 25° NE 09:47:46 25° NE 09:49:19 10° NNE
Nadezhda 4 Rocket 4.1 09:46:19 52° W 09:46:40 53° W 09:52:39 10° N
Cosmos 1606 3.8 09:43:02 10° N 09:45:53 43° NNE 09:45:53 43° NNE
Cosmos 2026 Rocket 4.1 09:47:20 52° SSE 09:48:51 71° E 09:55:08 10° N
SeaSat 1 3.5 09:44:57 10° NE 09:49:25 34° ESE 09:50:00 33° SE
Cosmos 1242 Rocket 4.0 09:46:26 10° N 09:48:44 36° NNE 09:48:44 36° NNE
Cosmos 1437 Rocket 4.4 09:46:21 10° NNW 09:48:19 28° NNW 09:48:19 28° NNW
Cosmos 2369 Rocket 2.1 09:49:10 10° NNW 09:54:49 64° WSW 09:54:49 64° WSW
NOSS 2-2 (C) 4.3 09:56:17 39° NNE 09:56:17 39° NNE 09:58:36 10° NNE
GPS 2-04 Rocket1 4.0 09:57:39 34° E 09:57:39 34° E 09:59:56 10° E
SL-16 R/B 2.4 09:56:35 57° SSW 09:57:49 73° WSW 10:04:01 10° NNW
IDEFIX/ARIANE 42P 3.5 09:55:08 10° NNE 10:00:03 40° E 10:01:44 31° SE
Cosmos 1656 Rocket 3.6 09:54:46 10° NNW 10:00:29 87° ENE 10:02:09 48° SSE
Cosmos 2263 4.0 09:56:42 10° NNW 10:02:22 79° WSW 10:03:22 60° S
CZ-4C R/B 3.9 10:04:44 13° SE 10:06:18 16° ESE 10:09:12 10° ENE
Cosmos 1633 4.0 10:11:12 30° NNW 10:11:12 30° NNW 10:13:19 10° N
ATLAS 5 CENTAUR R/B 1.6 10:11:02 57° NNW 10:11:02 57° NNW 10:14:48 10° NNE
USA 307 3.3 10:10:57 51° NW 10:11:01 51° NW 10:15:10 10° NNE
DELTA 2 R/B (1) 4.1 10:09:57 30° WNW 10:12:32 55° NNW 10:17:59 10° ENE
Meteor 2-15 Rocket 4.4 10:06:46 10° N 10:12:56 86° E 10:15:34 37° S
Meteor 2-15 4.4 10:09:42 10° NNW 10:15:48 68° W 10:17:32 47° SSW
Landsat 4 4.0 10:12:39 10° N 10:15:55 56° NW 10:15:55 56° NW
ATLAS 2A CENTAUR R/B 4.2 10:19:08 19° SE 10:19:08 19° SE 10:21:59 10° ESE
BREEZE-M DEB (TANK) 4.5 10:17:42 32° SSE 10:18:09 33° SSE 10:21:24 10° E
Helios 1B rocket 3.8 10:15:47 10° NNW 10:18:44 26° WNW 10:18:44 26° WNW
Cosmos 1932 4.3 10:15:28 10° NNW 10:21:40 79° WSW 10:26:25 18° SSE
Cosmos 1092 Rocket 4.4 10:23:35 38° WSW 10:24:54 44° W 10:30:43 10° N
Cosmos 2292 Rocket 3.2 10:25:58 59° NNE 10:25:58 59° NNE 10:28:27 10° N
USA 308 3.8 10:26:06 35° WNW 10:26:48 37° NW 10:30:47 10° NNE
ADEOS Rocket 3.4 10:22:03 23° S 10:27:11 81° WSW 10:34:12 10° NNW
Meteor 2-3 Rocket 3.6 10:26:23 43° SSW 10:28:20 85° W 10:33:57 10° N
Aureole 3 Rocket 3.6 10:25:06 10° NNW 10:29:08 48° W 10:29:34 47° WSW
IRS-1D 3.6 10:26:56 10° N 10:31:59 62° WNW 10:33:18 45° SW
CZ-4C R/B 4.0 10:33:07 24° SE 10:34:49 44° ENE 10:38:08 10° N
CBERS-1 4.0 10:30:36 10° N 10:35:43 73° WNW 10:37:28 42° SSW
Cosmos 1782 3.9 10:33:27 10° N 10:37:16 43° E 10:40:08 16° SSE
Cosmos 1655 Rocket 4.4 10:33:36 18° SSE 10:38:07 59° E 10:44:14 10° NNE
ASTEX 1 3.9 10:36:42 17° SSE 10:40:29 60° E 10:45:21 10° N
H-2A R/B 3.0 10:40:56 26° S 10:40:56 26° S 10:48:55 10° ESE
Chunghua 1 4.5 10:42:08 51° WNW 10:42:55 75° N 10:46:34 10° E
Lacrosse 4 Rocket 2.3 10:40:39 10° NNW 10:44:36 47° ENE 10:48:28 10° SE
IRS-P3 4.2 10:41:13 10° NNE 10:46:33 78° ESE 10:49:38 26° S
MSX 3.8 10:44:07 10° NNE 10:49:54 89° ESE 10:53:24 25° SSW
Meteor 1-26 Rocket 4.3 10:46:07 10° N 10:52:00 89° E 10:57:51 11° S
Cosmos 1933 3.5 10:51:11 10° NNW 10:55:10 52° W 10:56:17 39° SW
Alouette 2 Rocket 3.8 10:54:17 10° N 10:57:53 62° E 11:02:23 10° SSE
Cosmos 1271 Rocket 3.8 10:54:25 10° N 10:57:59 42° E 11:01:33 10° SSE
Cosmos 2298 Rocket 4.1 10:53:15 10° NNW 10:58:36 80° ENE 11:03:55 10° SSE
Cosmos 2151 4.4 10:58:32 21° W 10:58:50 21° WNW 11:02:03 10° NNW
Resurs 1-4 Rocket 4.3 11:02:10 10° NW 11:02:50 10° WNW 11:03:30 10° WNW
X-37B 3.7 11:01:30 10° NNW 11:02:57 12° N 11:04:25 10° NE
ERBS 2.1 11:02:15 49° WSW 11:02:58 71° NW 11:06:11 10° NE
Cosmos 2150 Rocket 3.9 11:06:07 10° NNW 11:11:20 84° WSW 11:16:37 10° SSE
BREEZE-M DEB (TANK) 3.5 11:02:09 10° NW 11:11:27 58° SW 11:14:30 10° SSE
Meteor 2-16 Rocket 4.4 11:08:34 16° S 11:13:36 79° W 11:19:45 10° N
CZ-2D R/B 3.4 11:11:58 10° NNE 11:16:09 88° ESE 11:19:10 18° SSW
Delta 2 Rocket 3.3 11:15:05 28° SW 11:16:49 52° SSE 11:20:20 10° E
ADEOS II 3.9 11:16:51 10° NNW 11:20:03 16° WNW 11:22:19 13° W
Cosmos 1500 Rocket 4.4 11:16:09 10° SSE 11:20:19 49° E 11:24:30 10° NNE
CZ-2C R/B 2.8 11:16:56 10° NNE 11:21:50 61° E 11:26:32 10° S
Cosmos 1743 Rocket 4.3 11:19:25 10° S 11:23:38 53° E 11:27:55 10° NNE
Cosmos 1862 3.3 11:21:32 19° SSW 11:24:19 66° W 11:28:21 10° N
SeaSat 1 3.8 11:22:40 10° N 11:26:43 26° WNW 11:29:46 15° WSW
Cosmos 1125 Rocket 3.4 11:21:52 10° NNW 11:27:08 74° WSW 11:32:23 10° S
Cosmos 1553 Rocket 4.5 11:21:33 10° NNW 11:27:20 40° W 11:32:31 12° SSW
Intelsat 5-2 Rocket 4.4 11:25:57 17° SSW 11:27:38 22° SSE 11:32:48 10° ESE
CZ-2C R/B 3.3 11:27:20 10° SSE 11:27:45 10° SSE 11:28:09 10° SE
SL-08 R/B 3.2 11:23:34 10° S 11:28:10 82° WSW 11:32:53 10° NNW
Cosmos 1328 Rocket 3.6 11:25:45 10° NNW 11:30:02 59° W 11:34:20 10° S
ARIANE 5 R/B 2.8 11:25:55 10° N 11:30:41 47° WNW 11:34:32 15° SW
S3M 4.1 11:25:56 10° NNW 11:31:56 58° W 11:38:01 10° S
Cosmos 2084 Rocket 3.5 11:30:54 15° SSW 11:34:02 65° ESE 11:37:57 10° NE
deb Kosmos-1763 3.9 11:32:19 17° SSW 11:34:56 75° WNW 11:38:28 10° NNE
GPS 2-04 Rocket1 2.9 11:31:44 10° W 11:35:33 66° N 11:39:15 10° E
IDEFIX/ARIANE 42P 4.1 11:35:29 10° NNW 11:39:18 21° WNW 11:42:33 12° WSW
Meteor 2-6 Rocket 4.3 11:36:25 10° NNW 11:42:18 76° W 11:47:59 10° S
CZ-4B R/B 4.3 11:39:44 10° N 11:44:33 37° WNW 11:48:59 12° SW
NOSS 3-4 (A) 4.3 11:40:01 10° S 11:45:26 43° ESE 11:51:01 10° NE
NOSS 3-4 (C) 4.3 11:40:10 10° S 11:45:33 42° ESE 11:51:08 10° NE
Cosmos 1484 Rocket 4.0 11:46:44 10° NNE 11:50:14 39° E 11:53:42 10° SSE
USA 281 3.8 11:46:14 10° S 11:52:08 35° WSW 11:58:04 10° NW
Sich 1 4.2 11:49:03 10° SSE 11:53:12 46° E 11:57:25 10° NNE
CZ-4C R/B 2.5 11:49:56 12° SW 11:54:02 45° NW 11:59:15 10° NNE
Tianhe-1 1.1 11:52:45 13° SW 11:55:31 71° SSE 11:58:40 10° ENE
